GW1174 Weather Reports


time (UTC)temp
F
wind
direction
speed
knots
gust
knots
rain 1hr
in
rain 24hr
in
rain mn
in
humidity
%
barometer
mb
20260904160017 58 123 6.1 7.0 0.00 0.20 0.20 41 1073.1
20260904155017 57 119 6.1 7.0 0.00 0.20 0.20 40 1072.4
20260904154022 81 203 6.1 13.0 0.00 0.04 0.00 53 1013.0
20260904154017 56 116 6.1 7.0 0.00 0.20 0.20 39 1071.7
20260904153017 55 112 6.1 7.0 0.00 0.20 0.20 39 1070.9
20260904152017 55 108 6.1 7.0 0.00 0.20 0.20 38 1070.2
20260904151041 82 203 8.7 13.9 0.00 0.06 0.00 52 1013.4
20260904151037 54 105 6.1 7.8 0.00 0.20 0.20 37 1069.5
20260904150017 53 101 6.1 7.8 0.00 0.20 0.20 37 1068.8
20260904145017 82 225 7.8 13.0 0.00 0.10 0.00 54 1013.6
20260904144017 51 94 6.1 7.8 0.00 0.20 0.20 36 1067.4
20260904143017 50 91 6.1 7.8 0.00 0.20 0.20 35 1066.7
20260904142017 49 87 7.0 7.8 0.00 0.20 0.20 35 1066.1
20260904141017 48 84 7.0 7.8 0.00 0.20 0.20 34 1065.4
20260904140017 48 81 7.0 7.8 0.00 0.20 0.20 33 1064.8
20260904135017 47 78 7.0 7.8 0.00 0.20 0.20 33 1064.1
20260904134037 46 74 7.0 8.7 0.00 0.20 0.20 32 1063.5
20260904133018 81 203 7.0 14.8 0.00 0.19 0.00 56 1014.4
20260904132018 81 225 6.1 12.2 0.00 0.20 0.00 56 1014.5
20260904131018 82 203 7.8 16.5 0.00 0.21 0.00 56 1014.7
20260904130017 43 62 7.0 8.7 0.00 0.20 0.20 30 1061.0
20260904125018 79 225 7.8 13.0 0.00 0.21 0.00 57 1015.0
20260904124017 41 56 7.0 8.7 0.00 0.20 0.20 29 1059.9
20260904123017 80 225 7.8 13.9 0.00 0.21 0.00 59 1015.2
20260904122018 80 225 6.1 13.9 0.00 0.21 0.00 57 1015.8
20260904121017 81 203 7.0 13.0 0.00 0.21 0.00 57 1016.0
20260904120017 38 45 7.8 9.6 0.00 0.20 0.20 28 1057.7
20260904115018 79 270 7.0 12.2 0.00 0.21 0.00 61 1016.0
20260904114017 37 40 7.8 9.6 0.00 0.20 0.20 27 1056.7
20260904113018 79 225 7.0 12.2 0.00 0.21 0.00 62 1016.2
20260904112018 78 203 8.7 18.2 0.00 0.21 0.00 63 1016.2
20260904111017 35 33 7.8 9.6 0.00 0.20 0.20 26 1055.3
20260904110037 34 31 7.8 9.6 0.00 0.20 0.20 25 1054.9
20260904105017 76 225 7.8 18.2 0.00 0.21 0.00 64 1016.3
20260904104018 76 225 8.7 14.8 0.00 0.21 0.00 65 1016.4
20260904104016 33 27 7.8 9.6 0.00 0.20 0.20 24 1054.0
20260904103017 77 270 7.0 16.5 0.00 0.21 0.00 67 1016.5
20260904102017 76 225 7.8 15.6 0.00 0.21 0.00 69 1016.6
20260904101017 32 21 7.8 9.6 0.00 0.20 0.20 23 1052.9
20260904100037 32 19 7.8 9.6 0.00 0.20 0.20 23 1052.5
20260904095017 74 225 6.1 11.3 0.00 0.21 0.00 76 1017.3
20260904094017 73 203 5.2 9.6 0.00 0.21 0.00 77 1017.3
20260904093017 72 180 6.1 11.3 0.00 0.21 0.00 80 1017.6
20260904092019 70 203 5.2 11.3 0.00 0.21 0.00 83 1017.6
20260904092017 31 13 8.7 10.4 0.00 0.20 0.20 22 1051.3
20260904091018 69 203 5.2 8.7 0.00 0.21 0.00 85 1017.7
20260904090017 68 180 3.5 7.0 0.00 0.21 0.00 87 1017.7
20260904085037 30 9 8.7 10.4 0.00 0.20 0.20 21 1050.5
20260904085017 67 180 3.5 7.0 0.00 0.21 0.00 89 1018.0
20260904084017 66 225 3.5 5.2 0.00 0.21 0.00 90 1018.0
20260904083017 65 203 5.2 9.6 0.00 0.21 0.00 91 1017.9
20260904082017 30 5 8.7 10.4 0.00 0.20 0.20 21 1049.8
20260904081017 64 203 4.3 7.8 0.00 0.21 0.00 93 1018.0
20260904080017 64 203 3.5 6.1 0.00 0.21 0.00 94 1018.2
20260904075017 63 203 3.5 4.3 0.00 0.21 0.00 94 1018.1
20260904074017 30 2 8.7 10.4 0.00 0.20 0.20 20 1049.2
20260904073037 31 2 8.7 10.4 0.00 0.20 0.20 20 1049.1
20260904072017 61 180 3.5 5.2 0.00 0.21 0.00 94 1018.2
20260904071037 61 180 3.5 5.2 0.00 0.21 0.00 94 1018.2
20260904070017 31 0 8.7 10.4 0.00 0.20 0.20 20 1048.9
20260904065018 61 180 2.6 7.0 0.00 0.21 0.00 95 1018.2
20260904064017 32 0 8.7 10.4 0.00 0.20 0.20 20 1048.8
20260904063017 60 180 2.6 4.3 0.00 0.21 0.00 95 1018.1
20260904062017 59 158 0.9 3.5 0.00 0.21 0.00 95 1018.1
20260904061017 34 0 8.7 10.4 0.00 0.20 0.20 20 1048.8
20260904060017 34 0 8.7 10.4 0.00 0.20 0.20 20 1048.8
20260904055017 35 1 8.7 10.4 0.00 0.20 0.20 20 1048.9
20260904054017 58 0.0 1.7 0.00 0.21 0.00 95 1018.1
20260904053017 57 0.0 0.9 0.00 0.21 0.00 95 1018.3
20260904052017 36 2 8.7 10.4 0.00 0.20 0.20 20 1049.2
20260904051017 37 3 8.7 10.4 0.00 0.20 0.20 20 1049.3
20260904050017 38 3 8.7 10.4 0.00 0.20 0.20 21 1049.4
20260904045017 38 4 8.7 10.4 0.00 0.20 0.20 21 1049.6
20260904044017 39 5 8.7 10.4 0.00 0.20 0.20 21 1049.8
20260904043017 40 6 8.7 10.4 0.00 0.20 0.20 21 1049.9
20260904042017 41 7 8.7 10.4 0.00 0.20 0.20 21 1050.2
20260904041037 41 8 8.7 10.4 0.00 0.20 0.20 21 1050.4
20260904040017 42 9 8.7 10.4 0.00 0.20 0.20 22 1050.6
20260904035017 43 11 8.7 10.4 0.00 0.20 0.20 22 1050.9
20260904034017 56 158 0.9 2.6 0.00 0.21 0.00 95 1018.4
20260904033017 45 13 8.7 10.4 0.00 0.20 0.20 22 1051.4
20260904032017 45 15 8.7 10.4 0.00 0.20 0.20 22 1051.7
20260904031017 46 16 8.7 9.6 0.00 0.20 0.20 23 1052.0
20260904030017 47 18 7.8 9.6 0.00 0.20 0.20 23 1052.4
20260904025017 48 20 7.8 9.6 0.00 0.20 0.20 23 1052.7
20260904024017 49 22 7.8 9.6 0.00 0.20 0.20 24 1053.1
20260904023017 50 24 7.8 9.6 0.00 0.20 0.20 24 1053.5
20260904022037 51 26 7.8 9.6 0.00 0.20 0.20 24 1053.9
20260904021017 52 28 7.8 9.6 0.00 0.20 0.20 25 1054.3
20260904020017 52 30 7.8 9.6 0.00 0.20 0.20 25 1054.7
20260904015016 55 0.0 0.9 0.00 0.21 0.00 94 1019.1
20260904014057 54 34 7.8 9.6 0.02 0.20 0.20 26 1055.6
20260904013017 55 37 7.8 9.6 0.03 0.20 0.20 26 1056.0
20260904012017 56 39 7.8 9.6 0.04 0.20 0.20 27 1056.5
20260904011018 57 0.0 0.0 0.00 0.21 0.00 94 1019.4
20260904010017 57 44 7.8 9.6 0.06 0.20 0.20 27 1057.5
20260904005017 58 47 7.8 8.7 0.06 0.20 0.19 28 1058.0
20260904004017 59 49 7.8 8.7 0.06 0.20 0.18 28 1058.5
20260904003037 60 52 7.8 8.7 0.07 0.20 0.17 29 1059.1
20260904002017 61 55 7.0 8.7 0.07 0.20 0.16 29 1059.6
20260904001017 61 58 7.0 8.7 0.07 0.20 0.15 30 1060.2
20260904000017 62 61 7.0 8.7 0.07 0.20 0.14 30 1060.8
20260903235017 63 64 7.0 8.7 0.07 0.20 0.13 31 1061.4
20260903234037 63 67 7.0 8.7 0.07 0.20 0.12 31 1062.0
20260903233017 64 70 7.0 8.7 0.06 0.20 0.10 32 1062.6
20260903232017 65 73 7.0 8.7 0.06 0.20 0.09 32 1063.2
20260903231037 65 76 7.0 7.8 0.06 0.20 0.08 33 1063.8
20260903230017 66 79 7.0 7.8 0.07 0.20 0.07 33 1064.5
20260903225037 66 83 7.0 7.8 0.06 0.20 0.06 34 1065.1
20260903224017 67 86 7.0 7.8 0.05 0.20 0.05 34 1065.8
20260903223017 67 89 7.0 7.8 0.04 0.20 0.04 35 1066.4
20260903222018 60 158 0.9 1.7 0.00 0.21 0.00 94 1020.6
20260903221038 60 0.0 0.9 0.00 0.21 0.00 94 1020.8
20260903220018 60 0.0 1.7 0.00 0.21 0.21 94 1020.7
20260903215037 69 103 6.1 7.8 0.00 0.20 0.20 37 1069.2
20260903214017 69 107 6.1 7.0 0.00 0.20 0.20 38 1069.9
20260903213037 69 110 6.1 7.0 0.00 0.20 0.20 38 1070.6
20260903212017 60 0.0 0.9 0.00 0.21 0.21 93 1020.6
20260903211017 60 0.0 0.0 0.00 0.21 0.21 94 1020.9
20260903210017 60 0.0 0.0 0.00 0.21 0.21 94 1020.9
20260903205018 60 0.0 0.0 0.00 0.21 0.21 94 1020.7
20260903204037 60 0.0 0.0 0.00 0.21 0.21 93 1020.7
20260903203017 70 133 5.2 7.0 0.00 0.20 0.20 42 1075.0
20260903202017 60 158 0.9 1.7 0.00 0.21 0.21 93 1020.6
20260903201017 60 158 1.7 3.5 0.00 0.21 0.21 93 1020.7
20260903200037 70 144 5.2 6.1 0.00 0.20 0.20 44 1077.3
20260903195017 70 148 5.2 6.1 0.00 0.20 0.20 45 1078.0
20260903194017 70 152 5.2 6.1 0.00 0.20 0.20 45 1078.8
20260903193017 69 156 5.2 6.1 0.00 0.20 0.20 46 1079.6
20260903192017 69 159 5.2 6.1 0.00 0.20 0.20 47 1080.3
20260903191016 69 163 4.3 6.1 0.00 0.20 0.20 47 1081.1
20260903190017 69 167 4.3 5.2 0.00 0.20 0.20 48 1081.9
20260903185017 68 171 4.3 5.2 0.00 0.20 0.20 49 1082.7
20260903184017 68 175 4.3 5.2 0.00 0.20 0.20 49 1083.4
20260903183017 67 179 4.3 5.2 0.00 0.20 0.20 50 1084.2
20260903182017 67 183 4.3 5.2 0.00 0.20 0.20 51 1085.0
20260903181017 66 187 4.3 5.2 0.00 0.20 0.20 51 1085.8
20260903180017 66 191 4.3 5.2 0.00 0.20 0.20 52 1086.5
20260903175017 65 195 4.3 5.2 0.00 0.20 0.20 52 1087.3
20260903174017 65 199 3.5 4.3 0.00 0.20 0.20 53 1088.1
20260903173017 64 203 3.5 4.3 0.00 0.20 0.20 54 1088.9
20260903172017 64 206 3.5 4.3 0.00 0.20 0.20 54 1089.6
20260903171018 61 90 0.9 2.6 0.02 0.21 0.21 92 1019.2
20260903170017 62 214 3.5 4.3 0.00 0.20 0.20 56 1091.2
20260903165017 62 218 3.5 4.3 0.00 0.20 0.20 56 1091.9
20260903164017 61 222 3.5 4.3 0.00 0.20 0.20 57 1092.7
20260903163017 60 226 3.5 4.3 0.00 0.20 0.20 58 1093.4
20260903162017 59 229 3.5 3.5 0.00 0.20 0.20 58 1094.2
20260903161017 59 233 3.5 3.5 0.00 0.20 0.20 59 1094.9